Skip Page Navigation
NASA JPL Caltech
NASA Logo - Jet Propulsion Laboratory + View the NASA Portal
+ Center for Near-Earth Object Studies
JPL Home Earth Solar System Stars & Galaxies Technology
JPL Solar System Dynamics
BODIES ORBITS EPHEMERIDES TOOLS PHYSICAL DATA DISCOVERY FAQ SITE MAP
JPL Small-Body Database Browser
Search: [ help ]  
487294 (2014 QV41)
Classification: Main-belt Asteroid          SPK-ID: 2487294
Ephemeris | Orbit Diagram | Orbital Elements | Mission Design | Physical Parameters | Discovery Circumstances | Close-Approach Data ]

[ show orbit diagram ]
Orbital Elements at Epoch 2459000.5 (2020-May-31.0) TDB
Reference: JPL 18 (heliocentric ecliptic J2000)
 Element Value Uncertainty (1-sigma)   Units 
e .07523145276556414 9.273e-08  
a 3.032018935764373 5.9599e-08 au
q 2.80391574641412 2.9738e-07 au
i 8.509739893898628 7.3994e-06 deg
node 253.6108554906671 5.8365e-05 deg
peri 45.24739507823814 7.2155e-05 deg
M 59.58564148833003 4.0364e-05 deg
tp 2458681.320191942329
(2019-Jul-16.82019194)
0.00021605 TDB
period 1928.396305396256
5.28
5.6858e-05
1.557e-07
d
yr
n .1866836183997073 5.5043e-09 deg/d
Q 3.260122125114627 6.4083e-08 au
  Orbit Determination Parameters
   # obs. used (total)      96  
   data-arc span      3150 days (8.62 yr)  
   first obs. used      2010-12-13  
   last obs. used      2019-07-29  
   planetary ephem.      DE431  
   SB-pert. ephem.      SB431-N16  
   condition code      0  
   norm. resid. RMS      .5773  
   source      ORB  
   producer      Otto Matic  
   solution date      2019-Sep-24 08:19:03  

Additional Information
 Earth MOID = 1.79582 au 
 Jupiter MOID = 1.89001 au 
 T_jup = 3.222 
[ show covariance matrix ]

Ephemeris | Orbit Diagram | Orbital Elements | Mission Design | Physical Parameters | Discovery Circumstances | Close-Approach Data ]

Physical Parameter Table
Parameter Symbol Value Units Sigma Reference Notes
absolute magnitude H 16.5   n/a MPO446845  

487294 (2014 QV41)          Discovered 2013-Apr-16 by Pan-STARRS 1 at Haleakala
Reference: Last Updated: 2017-03-14

[ show close-approach data ]
Ephemeris | Orbit Diagram | Orbital Elements | Mission Design | Physical Parameters | Discovery Circumstances | Close-Approach Data ]
ABOUT SSD CREDITS/AWARDS PRIVACY/COPYRIGHT GLOSSARY LINKS
FirstGov 2020-Jul-13 11:11 UT
(server date/time)  
NASA Home Page
Site Manager:   Ryan S. Park
Webmaster  Alan B. Chamberlin